Date,TemperatureHighF,TemperatureAvgF,TemperatureLowF,DewpointHighF,DewpointAvgF,DewpointLowF,HumidityHigh,HumidityAvg,HumidityLow,PressureMaxIn,PressureMinIn,WindSpeedMaxMPH,WindSpeedAvgMPH,GustSpeedMaxMPH,PrecipitationSumIn
2013-5-30,76,51,76,56,4,-100,50,33,50,29.84,29.83,0,-333,0,0.00
2013-5-31,81,73,68,65,60,-100,76,66,59,29.85,29.71,26,-12,26,0.00
2013-6-1,77,70,61,66,61,56,92,74,60,29.78,29.65,26,7,26,0.26
2013-6-2,64,56,44,59,49,40,92,77,60,29.97,29.66,17,6,17,0.00
2013-6-3,70,54,41,51,43,40,97,70,38,30.05,29.97,16,2,16,0.00
2013-6-4,82,60,44,52,46,41,95,65,29,30.12,30.03,11,3,11,0.00
2013-6-5,83,67,56,53,48,43,85,53,31,30.10,29.88,18,4,18,0.00
2013-6-6,74,64,54,56,50,45,87,62,44,29.90,29.80,13,3,13,0.00
2013-6-7,79,62,52,55,49,43,91,65,40,29.88,29.82,13,3,13,0.00
2013-6-8,78,62,47,55,50,44,95,66,43,29.97,29.85,11,2,11,0.00
2013-6-9,87,71,57,63,56,50,83,62,37,29.98,29.80,18,4,18,0.00
2013-6-10,76,68,61,65,63,59,97,85,60,29.82,29.70,26,5,26,0.21
2013-6-11,88,71,60,67,62,59,99,76,47,29.89,29.78,21,4,21,0.00
2013-6-12,93,75,65,74,67,61,95,78,51,29.87,29.55,16,3,16,0.20
2013-6-13,73,65,57,65,57,51,95,77,57,29.95,29.49,27,5,27,0.15
2013-6-14,83,64,52,60,54,50,96,74,43,30.06,29.94,16,3,16,0.00
2013-6-15,78,66,55,65,59,54,96,79,57,30.03,29.85,22,3,22,0.01
2013-6-16,85,73,65,65,61,49,87,68,35,29.87,29.81,27,6,27,0.06
2013-6-17,90,74,62,66,59,44,96,65,22,29.91,29.81,16,4,16,0.08
2013-6-18,82,67,60,62,58,49,95,73,47,30.00,29.83,15,3,15,0.01
2013-6-19,85,66,53,52,47,38,81,55,23,30.11,30.00,9,3,9,0.00
2013-6-20,92,72,53,63,56,49,91,61,31,30.13,30.05,8,2,8,0.00
2013-6-21,89,74,66,68,63,60,96,72,42,30.12,29.94,40,4,40,0.20
2013-6-22,69,68,67,66,65,64,96,89,84,30.04,29.97,0,0,0,0.00
2013-6-24,-200,0,200,-100,-100,-100,0,0,100,0.00,40.00,0,-999,0,0.00
2013-6-25,-200,0,200,-100,-100,-100,0,0,100,0.00,40.00,0,-999,0,0.00